• In United Kingdom
  • List of Countries
  • For 7 days
  • Water Temperature
  • Satellite Maps
  • Weather Map
  • Weather Widgets
  • user-avatar
    Login

    Hourly Weather Campeche

    Today, 18 August, Friday

    Time Temperature Precipitation Wind Pressure Humidity
    00:00 +28°C° 0 mm 1 mps 759 mmHg 80%
    01:00 +27°C° 0 mm 1 mps 759 mmHg 85%
    02:00 +26°C° 0 mm 1 mps 758 mmHg 90%
    03:00 +25°C° 0 mm 1 mps 758 mmHg 95%
    04:00 +25°C° 0 mm 1 mps 758 mmHg 96%
    05:00 +25°C° 0 mm 1 mps 758 mmHg 98%
    06:00 +24°C° 0 mm 1 mps 758 mmHg 99%
    07:00 +27°C° 0 mm 1 mps 759 mmHg 85%
    08:00 +30°C° 0 mm 1 mps 759 mmHg 72%
    09:00 +32°C° 0 mm 1 mps 759 mmHg 59%
    10:00 +35°C° 0 mm 1 mps 759 mmHg 50%
    11:00 +37°C° 0 mm 1 mps 759 mmHg 40%
    12:00 +40°C° 0 mm 1 mps 758 mmHg 31%
    13:00 +40°C° 0 mm 1 mps 757 mmHg 30%
    14:00 +41°C° 0 mm 2 mps 757 mmHg 28%
    15:00 +41°C° 0 mm 2 mps 756 mmHg 27%
    16:00 +39°C° 0 mm 2 mps 756 mmHg 35%
    17:00 +37°C° 0 mm 2 mps 756 mmHg 43%
    18:00 +35°C° 0 mm 2 mps 756 mmHg 50%
    19:00 +32°C° 0 mm 2 mps 757 mmHg 57%
    20:00 +31°C° 0 mm 2 mps 757 mmHg 64%
    21:00 +30°C° 0 mm 2 mps 758 mmHg 70%
    22:00 +29°C° 0 mm 2 mps 758 mmHg 73%
    23:00 +28°C° 0 mm 2 mps 758 mmHg 76%

    Tomorrow, 19 August, Saturday

    Time Temperature Precipitation Wind Pressure Humidity
    00:00 +28°C° 0 mm 2 mps 758 mmHg 80%
    01:00 +27°C° 0 mm 1 mps 758 mmHg 83%
    02:00 +27°C° 0 mm 1 mps 757 mmHg 86%
    03:00 +26°C° 0 mm 1 mps 757 mmHg 89%
    04:00 +26°C° 0 mm 1 mps 757 mmHg 91%
    05:00 +25°C° 0 mm 1 mps 757 mmHg 93%
    06:00 +25°C° 0 mm 1 mps 757 mmHg 95%
    07:00 +28°C° 0 mm 1 mps 758 mmHg 83%
    08:00 +30°C° 0 mm 1 mps 758 mmHg 71%
    09:00 +33°C° 0 mm 1 mps 758 mmHg 59%
    10:00 +35°C° 0 mm 1 mps 758 mmHg 50%
    11:00 +39°C° 0 mm 1 mps 758 mmHg 42%
    12:00 +39°C° 0 mm 0 mps 757 mmHg 33%
    13:00 +40°C° 0 mm 1 mps 757 mmHg 36%
    14:00 +39°C° 0 mm 1 mps 756 mmHg 40%
    15:00 +37°C° 0 mm 2 mps 755 mmHg 43%
    16:00 +36°C° 0 mm 2 mps 755 mmHg 48%
    17:00 +35°C° 0 mm 2 mps 755 mmHg 52%
    18:00 +35°C° 0 mm 2 mps 755 mmHg 57%
    19:00 +32°C° 0.3 mm 2 mps 756 mmHg 66%
    20:00 +30°C° 0.3 mm 2 mps 757 mmHg 76%
    21:00 +28°C° 0.3 mm 2 mps 757 mmHg 85%
    22:00 +27°C° 0.3 mm 1 mps 757 mmHg 88%
    23:00 +27°C° 0.3 mm 1 mps 757 mmHg 91%

    Day after tomorrow, 20 August, Sunday

    Time Temperature Precipitation Wind Pressure Humidity
    00:00 +26°C° 0.3 mm 1 mps 757 mmHg 94%
    01:00 +26°C° 0.1 mm 1 mps 757 mmHg 94%
    02:00 +25°C° 0.1 mm 1 mps 757 mmHg 95%
    03:00 +25°C° 0.1 mm 1 mps 756 mmHg 96%
    04:00 +25°C° 0 mm 1 mps 756 mmHg 96%
    05:00 +25°C° 0 mm 1 mps 757 mmHg 96%
    06:00 +25°C° 0 mm 1 mps 757 mmHg 97%
    07:00 +28°C° 0 mm 1 mps 757 mmHg 84%
    08:00 +30°C° 0 mm 1 mps 758 mmHg 72%
    09:00 +33°C° 0 mm 1 mps 758 mmHg 60%
    10:00 +35°C° 0 mm 1 mps 758 mmHg 51%
    11:00 +39°C° 0 mm 1 mps 757 mmHg 42%
    12:00 +41°C° 0 mm 1 mps 757 mmHg 32%
    13:00 +40°C° 0 mm 1 mps 756 mmHg 33%
    14:00 +40°C° 0 mm 2 mps 755 mmHg 34%
    15:00 +40°C° 0 mm 2 mps 754 mmHg 34%
    16:00 +38°C° 0 mm 2 mps 755 mmHg 42%
    17:00 +36°C° 0 mm 2 mps 755 mmHg 50%
    18:00 +34°C° 0 mm 2 mps 755 mmHg 58%
    19:00 +31°C° 1.2 mm 2 mps 756 mmHg 68%
    20:00 +29°C° 1.2 mm 2 mps 757 mmHg 78%
    21:00 +28°C° 1.2 mm 1 mps 757 mmHg 89%
    22:00 +27°C° 0.1 mm 1 mps 757 mmHg 90%
    23:00 +27°C° 0.1 mm 1 mps 757 mmHg 92%

    21 August, Monday

    Time Temperature Precipitation Wind Pressure Humidity
    00:00 +27°C° 0.1 mm 1 mps 757 mmHg 93%
    01:00 +27°C° 0.2 mm 1 mps 757 mmHg 95%
    02:00 +26°C° 0.2 mm 1 mps 757 mmHg 96%
    03:00 +26°C° 0.2 mm 1 mps 757 mmHg 98%
    04:00 +26°C° 0 mm 1 mps 757 mmHg 98%
    05:00 +26°C° 0 mm 1 mps 757 mmHg 98%
    06:00 +26°C° 0 mm 1 mps 758 mmHg 98%
    07:00 +28°C° 0 mm 1 mps 758 mmHg 87%
    08:00 +30°C° 0 mm 1 mps 758 mmHg 76%
    09:00 +33°C° 0 mm 1 mps 759 mmHg 64%
    10:00 +35°C° 0 mm 1 mps 758 mmHg 55%
    11:00 +37°C° 0 mm 1 mps 758 mmHg 46%
    12:00 +40°C° 0 mm 1 mps 757 mmHg 37%
    13:00 +40°C° 0 mm 1 mps 757 mmHg 37%
    14:00 +39°C° 0 mm 1 mps 756 mmHg 38%
    15:00 +39°C° 0 mm 2 mps 756 mmHg 39%
    16:00 +36°C° 0.9 mm 2 mps 756 mmHg 52%
    17:00 +34°C° 0.9 mm 2 mps 756 mmHg 66%
    18:00 +30°C° 0.9 mm 2 mps 757 mmHg 79%
    19:00 +29°C° 1.4 mm 1 mps 757 mmHg 84%
    20:00 +28°C° 1.4 mm 1 mps 758 mmHg 88%
    21:00 +27°C° 1.4 mm 1 mps 758 mmHg 93%
    22:00 +27°C° 0.6 mm 1 mps 758 mmHg 94%
    23:00 +27°C° 0.6 mm 1 mps 758 mmHg 95%

    22 August, Tuesday

    Time Temperature Precipitation Wind Pressure Humidity
    00:00 +26°C° 0.6 mm 1 mps 758 mmHg 96%
    01:00 +26°C° 0 mm 1 mps 757 mmHg 96%
    02:00 +24°C° 0 mm 0 mps 757 mmHg 96%
    03:00 +24°C° 0 mm 0 mps 757 mmHg 97%
    04:00 +24°C° 0 mm 0 mps 757 mmHg 97%
    05:00 +24°C° 0 mm 0 mps 757 mmHg 97%
    06:00 +24°C° 0 mm 0 mps 757 mmHg 98%
    07:00 +27°C° 0 mm 1 mps 758 mmHg 92%
    08:00 +29°C° 0 mm 1 mps 758 mmHg 86%
    09:00 +31°C° 0 mm 1 mps 758 mmHg 81%
    10:00 +32°C° 0.7 mm 1 mps 758 mmHg 79%
    11:00 +33°C° 0.7 mm 1 mps 758 mmHg 78%
    12:00 +34°C° 0.7 mm 1 mps 757 mmHg 77%
    13:00 +34°C° 2.7 mm 1 mps 757 mmHg 78%
    14:00 +33°C° 2.7 mm 1 mps 756 mmHg 80%
    15:00 +33°C° 2.7 mm 1 mps 756 mmHg 82%
    16:00 +32°C° 1.5 mm 1 mps 756 mmHg 86%
    17:00 +30°C° 1.5 mm 1 mps 756 mmHg 90%
    18:00 +29°C° 1.5 mm 1 mps 756 mmHg 94%
    19:00 +29°C° 0.1 mm 1 mps 757 mmHg 94%
    20:00 +28°C° 0.1 mm 1 mps 757 mmHg 95%
    21:00 +27°C° 0.1 mm 1 mps 757 mmHg 96%
    22:00 +27°C° 0 mm 1 mps 757 mmHg 97%
    23:00 +27°C° 0 mm 1 mps 757 mmHg 97%

    23 August, Wednesday

    Time Temperature Precipitation Wind Pressure Humidity
    00:00 +26°C° 0 mm 1 mps 757 mmHg 98%
    01:00 +26°C° 0 mm 1 mps 756 mmHg 98%
    02:00 +26°C° 0 mm 1 mps 756 mmHg 98%
    03:00 +26°C° 0 mm 1 mps 756 mmHg 99%
    04:00 +25°C° 0 mm 1 mps 756 mmHg 98%
    05:00 +25°C° 0 mm 1 mps 756 mmHg 98%
    06:00 +25°C° 0 mm 1 mps 756 mmHg 98%
    07:00 +27°C° 0 mm 1 mps 757 mmHg 86%
    08:00 +29°C° 0 mm 1 mps 757 mmHg 75%
    09:00 +31°C° 0 mm 2 mps 757 mmHg 64%
    10:00 +34°C° 0 mm 2 mps 757 mmHg 58%
    11:00 +35°C° 0 mm 2 mps 756 mmHg 52%
    12:00 +36°C° 0 mm 2 mps 756 mmHg 47%
    13:00 +36°C° 0 mm 2 mps 755 mmHg 46%
    14:00 +36°C° 0 mm 2 mps 755 mmHg 46%
    15:00 +36°C° 0 mm 2 mps 754 mmHg 46%
    16:00 +34°C° 0 mm 2 mps 754 mmHg 52%
    17:00 +32°C° 0 mm 2 mps 754 mmHg 58%
    18:00 +30°C° 0 mm 1 mps 755 mmHg 64%
    19:00 +29°C° 0 mm 1 mps 755 mmHg 69%
    20:00 +28°C° 0 mm 1 mps 755 mmHg 73%
    21:00 +27°C° 0 mm 1 mps 756 mmHg 77%
    22:00 +24°C° 0 mm 0 mps 756 mmHg 79%
    23:00 +24°C° 0 mm 0 mps 755 mmHg 81%
    Show more